Flag for U.S.A. Weather past 2 weeks in Manhattan, Kansas, U.S.A.

Now
101 °F

Sunny.


Feels Like: 108 °F
Forecast: 74 / 100 °F
Wind: 17 mph from Southwest

Location: Manhattan Municipal Airport

Current Time: Jul 25, 2014 at 1:30:12 PM

Latest Report: Jul 25, 2014 at 12:52 PM


Visibility: 10 mi

Pressure: 29.74 "Hg

Humidity: 36%

Dew point: 69 °F

Location of ManhattanLocation

Historic Weather in Manhattan — Graph

°F

Manhattan temperature yesterday

Maximum temperature yesterday: 92 °F (at 3:52 PM)
Minimum temperature yesterday: 65 °F (at 4:52 AM)
Average temperature yesterday: 79 °F

Past Weeks' High & Low Weather Summary

 TemperatureHumidityPressure
High102 °F (Jul 21, 3:52 PM)96% (Jul 14, 3:52 AM)30.21 "Hg (Jul 14, 3:52 AM)
Low51 °F (Jul 15, 4:52 AM)33% (Jul 22, 6:52 PM)29.74 "Hg (Jul 25, 11:52 AM)
Average77 °F64%29.99 "Hg
* Reported Jul 10 11:52 AM — Jul 25 11:52 AM, Manhattan, Weather by CustomWeather, © 2014

Note: Actual official high and low records may vary slightly from our data, if they occured in-between our weather recording intervals... More about our weather records

Advertising

Manhattan weather history for previous 24 hours

 ConditionsComfort  
Time TempWeatherWind HumidityBarometerVisibility
11:52 AM
Jul 25
96 °FSunny.23 mph38%29.74 "Hg10 mi
10:52 AM93 °FSunny.15 mph46%29.77 "Hg10 mi
9:52 AM89 °FSunny.20 mph52%29.78 "Hg10 mi
8:52 AM85 °FSunny.17 mph61%29.79 "Hg10 mi
7:52 AM78 °FSunny.14 mph74%29.79 "Hg10 mi
6:52 AM77 °FClear.18 mph79%29.78 "Hg10 mi
5:52 AM77 °FClear.16 mph79%29.79 "Hg10 mi
4:52 AM78 °FClear.14 mph76%29.80 "Hg10 mi
3:52 AM80 °FClear.15 mph71%29.82 "Hg10 mi
2:52 AM79 °FClear.16 mph72%29.83 "Hg10 mi
1:52 AM79 °FClear.13 mph69%29.85 "Hg10 mi
12:52 AM78 °FClear.9 mph69%29.88 "Hg10 mi
11:52 PM
Jul 24
79 °FClear.8 mph67%29.89 "Hg10 mi
10:52 PM78 °FClear.6 mph69%29.90 "Hg10 mi
9:52 PM81 °FClear.9 mph60%29.91 "Hg10 mi
8:52 PM83 °FSunny.9 mph57%29.90 "Hg10 mi
7:52 PM86 °FSunny.15 mph49%29.91 "Hg10 mi
6:52 PM89 °FSunny.16 mph45%29.91 "Hg10 mi
5:52 PM90 °FSunny.18 mph43%29.92 "Hg10 mi
4:52 PM90 °FSunny.17 mph38%29.94 "Hg10 mi
3:52 PM92 °FSunny.15 mph38%29.95 "Hg10 mi
2:52 PM90 °FSunny.13 mph39%29.99 "Hg10 mi
1:52 PM89 °FSunny.15 mph42%30.01 "Hg10 mi
Weather by CustomWeather, © 2014

See weather overviewHow to use our weather pages